TimeEDT,TemperatureF,Dew PointF,Humidity,Sea Level PressureIn,VisibilityMPH,Wind Direction,Wind SpeedMPH,Gust SpeedMPH,PrecipitationIn,Events,Conditions,WindDirDegrees,DateUTC
12:58 AM,75.9,73.9,94,30.16,8.0,West,4.6,-,N/A,,Clear,270,2013-07-30 04:58:00
1:58 AM,75.0,71.1,87,30.15,10.0,WNW,8.1,-,N/A,,Clear,290,2013-07-30 05:58:00
2:58 AM,73.9,72.0,93,30.14,10.0,WNW,5.8,-,N/A,,Clear,290,2013-07-30 06:58:00
3:58 AM,73.9,72.0,93,30.15,9.0,West,5.8,-,N/A,,Partly Cloudy,260,2013-07-30 07:58:00
4:58 AM,73.9,72.0,93,30.15,9.0,NNW,4.6,-,N/A,,Partly Cloudy,330,2013-07-30 08:58:00
5:58 AM,72.0,72.0,100,30.15,7.0,NNW,3.5,-,N/A,,Clear,340,2013-07-30 09:58:00
6:58 AM,73.0,72.0,96,30.17,6.0,Calm,Calm,-,N/A,,Partly Cloudy,0,2013-07-30 10:58:00
7:58 AM,75.0,73.0,94,30.19,5.0,NNW,3.5,-,N/A,,Mostly Cloudy,330,2013-07-30 11:58:00
8:58 AM,75.9,73.9,94,30.20,6.0,Calm,Calm,-,N/A,,Overcast,0,2013-07-30 12:58:00
9:58 AM,77.0,75.0,94,30.19,5.0,Calm,Calm,-,N/A,,Overcast,0,2013-07-30 13:58:00
10:47 AM,78.8,75.2,89,30.20,6.0,North,3.5,-,N/A,,Overcast,360,2013-07-30 14:47:00
10:58 AM,79.0,75.0,88,30.20,6.0,East,3.5,-,N/A,,Mostly Cloudy,80,2013-07-30 14:58:00
11:04 AM,80.6,75.2,84,30.20,6.0,ENE,3.5,-,N/A,,Haze,70,2013-07-30 15:04:00
11:36 AM,78.8,73.4,83,30.19,8.0,ENE,6.9,-,N/A,,Mostly Cloudy,60,2013-07-30 15:36:00
11:42 AM,80.6,75.2,84,30.19,9.0,ENE,6.9,-,N/A,,Mostly Cloudy,70,2013-07-30 15:42:00
11:58 AM,81.0,73.9,79,30.19,10.0,NE,6.9,-,N/A,,Mostly Cloudy,50,2013-07-30 15:58:00
12:58 PM,82.0,73.9,76,30.18,9.0,ENE,5.8,-,N/A,,Clear,70,2013-07-30 16:58:00
1:54 PM,78.8,71.6,78,30.17,9.0,East,8.1,-,N/A,,Overcast,100,2013-07-30 17:54:00
1:58 PM,78.1,72.0,81,30.17,9.0,East,5.8,-,N/A,,Overcast,100,2013-07-30 17:58:00
2:08 PM,78.8,71.6,78,30.17,8.0,ESE,8.1,-,N/A,,Overcast,110,2013-07-30 18:08:00
2:58 PM,79.0,73.0,82,30.17,10.0,East,3.5,-,0.00,,Scattered Clouds,90,2013-07-30 18:58:00
3:58 PM,82.0,73.0,74,30.15,10.0,East,4.6,-,N/A,,Mostly Cloudy,90,2013-07-30 19:58:00
4:38 PM,80.6,71.6,74,30.14,10.0,ESE,4.6,-,N/A,,Mostly Cloudy,110,2013-07-30 20:38:00
4:58 PM,82.0,71.1,69,30.14,10.0,East,4.6,-,N/A,,Scattered Clouds,90,2013-07-30 20:58:00
5:25 PM,80.6,71.6,74,30.14,10.0,Variable,4.6,-,N/A,,Overcast,0,2013-07-30 21:25:00
5:58 PM,81.0,72.0,74,30.14,10.0,Calm,Calm,-,N/A,,Overcast,0,2013-07-30 21:58:00
6:17 PM,82.4,73.4,74,30.13,10.0,Variable,3.5,-,N/A,,Mostly Cloudy,0,2013-07-30 22:17:00
6:37 PM,80.6,71.6,74,30.13,10.0,South,4.6,-,N/A,,Overcast,180,2013-07-30 22:37:00
6:55 PM,80.6,71.6,74,30.14,10.0,SSW,4.6,-,N/A,,Overcast,210,2013-07-30 22:55:00
6:58 PM,81.0,72.0,74,30.14,10.0,SSW,3.5,-,N/A,,Overcast,210,2013-07-30 22:58:00
7:32 PM,80.6,71.6,74,30.15,10.0,Calm,Calm,-,N/A,,Mostly Cloudy,0,2013-07-30 23:32:00
7:58 PM,77.0,72.0,84,30.15,9.0,ENE,8.1,-,N/A,,Overcast,60,2013-07-30 23:58:00
8:07 PM,75.2,71.6,89,30.15,8.0,NNE,6.9,-,N/A,,Overcast,20,2013-07-31 00:07:00
8:17 PM,75.2,73.4,94,30.15,7.0,NE,4.6,-,N/A,,Overcast,50,2013-07-31 00:17:00
8:25 PM,75.2,73.4,94,30.15,9.0,NE,4.6,-,N/A,,Mostly Cloudy,50,2013-07-31 00:25:00
8:58 PM,75.9,73.0,91,30.15,10.0,NE,3.5,-,N/A,,Clear,50,2013-07-31 00:58:00
9:58 PM,75.0,73.0,94,30.16,10.0,ENE,4.6,-,N/A,,Clear,60,2013-07-31 01:58:00
10:58 PM,75.9,73.0,91,30.15,9.0,East,3.5,-,N/A,,Clear,80,2013-07-31 02:58:00
11:58 PM,75.0,73.9,96,30.15,8.0,Calm,Calm,-,N/A,,Clear,0,2013-07-31 03:58:00